INTELSAT 32E (IS-32E)

Last updated on Sat Aug 15 2026 00:03:00 GMT+0000 (Coordinated Universal Time)

1 41945U 17007B 26226.48814906 .00000000 00000+0 00000+0 0 9994 2 41945 0.0164 126.9955 0000146 333.6175 354.8501 1.00269792 34810
UTC large
Height (km)
Speed (km/s)
/
Latitude / Longitude
Inclination (degrees)
Orbital Period (minutes)
Azimuth
Elevation
Range (km)
Doppler Factor

Next 0 passes for location: London (51.5072 / 0.1276)

No passes found over London.
INTELSAT 32E (IS-32E)